This is the latest recevied weather packets stored in our database for station/object N8BAP. If no packets are shown the sender has not sent any weather packets the latest 10 day(s).
| Time | Temp. | Humidity | Pressure | Rain* | Wind** | Luminosity | Snow |
|---|---|---|---|---|---|---|---|
| 1777409594 | 22.78° C | 63% | 1018.9 hPa | 0 mm | - | 545 W/m² | - |
| 1777409289 | 22.22° C | 64% | 1018.8 hPa | 0 mm | - | 255 W/m² | - |
| 1777408985 | 22.78° C | 64% | 1019.1 hPa | 0 mm | - | 184 W/m² | - |
| 1777408682 | 22.78° C | 66% | 1018.8 hPa | 0 mm | - | 638 W/m² | - |
| 1777408377 | 22.78° C | 65% | 1019 hPa | 0 mm | - | 562 W/m² | - |
| 1777408076 | 22.78° C | 66% | 1019.1 hPa | 0 mm | - | 606 W/m² | - |
| 1777407773 | 22.78° C | 64% | 1018.9 hPa | 0 mm | - | 619 W/m² | - |
| 1777407469 | 23.33° C | 63% | 1018.6 hPa | 0 mm | - | 185 W/m² | - |
| 1777407163 | 22.78° C | 63% | 1018.6 hPa | 0 mm | - | 568 W/m² | - |
| 1777406859 | 23.33° C | 65% | 1018.5 hPa | 0 mm | - | 285 W/m² | - |
| 1777406554 | 22.78° C | 66% | 1018.8 hPa | 0 mm | - | 636 W/m² | - |
| 1777406250 | 22.22° C | 72% | 1018.5 hPa | 0 mm | - | 712 W/m² | - |
| 1777405949 | 22.78° C | 65% | 1018.6 hPa | 0 mm | - | 161 W/m² | - |
| 1777405646 | 22.78° C | 67% | 1018.5 hPa | 0 mm | - | 660 W/m² | - |
| 1777405343 | 22.22° C | 70% | 1018.5 hPa | 0 mm | - | 689 W/m² | - |
| 1777405039 | 22.78° C | 66% | 1018.5 hPa | 0 mm | - | 296 W/m² | - |
| 1777404734 | 22.78° C | 64% | 1018.6 hPa | 0 mm | - | 704 W/m² | - |
| 1777404429 | 22.78° C | 66% | 1018.5 hPa | 0 mm | - | 608 W/m² | - |
| 1777404126 | 22.78° C | 63% | 1019 hPa | 0 mm | - | 747 W/m² | - |
| 1777403822 | 22.22° C | 68% | 1018.9 hPa | 0 mm | - | 740 W/m² | - |
| 1777403516 | 22.22° C | 70% | 1018.9 hPa | 0 mm | - | 762 W/m² | - |
| 1777403216 | 21.67° C | 68% | 1019 hPa | 0 mm | - | 361 W/m² | - |
| 1777402912 | 22.22° C | 69% | 1019.1 hPa | 0 mm | - | 217 W/m² | - |
| 1777402607 | 22.22° C | 72% | 1019.2 hPa | 0 mm | - | 231 W/m² | - |
| 1777402306 | 21.67° C | 73% | 1019.3 hPa | 0 mm | - | 719 W/m² | - |
* Rain latest hour (hover to see other rain measurements)
** Current wind speed in m/s (hover to see current wind gust speed)